Content
SEND FEEDBACK

Daily
Averages
Monthly
Summary
Iran

BOJNURD, IRAN


Home > Middle East > Iran
Elevation: 3694 feet     Latitude: 37 28N     Longitude: 057 20E

WEATHER
 
SELECT A DAY
Number of Records: 35,942;   Date Range: 5/9/03 - 11/26/14
 
SHARE

PRINT THIS DATA

[ ← Previous Day ]
WEATHER ALMANAC - JANUARY 3, 2014
[ Next Day → ]
[ °C ]   °F
Weather ElementAverageHighLow
Temperature32 °F35.6 °F (10:30 am)30.2 °F (4:30 am)
Dewpoint29.4 °F32 °F (11:00 am)26.6 °F (12:30 pm)
Humidity89.6 %100 % (4:30 am)67 % (12:30 pm)
Barometer30.28 in30.43 in (9:30 pm)30.21 in (12:30 am)
Wind Speed1.9 mph6.9 mph (1:30 pm)
Weather ElementAverage
Visibility4.2 mi
Wind DirectionESE (109.6 °)

Weather ElementTotal
Precipitation---
Heating Degree Days32.1 (Base 65)
Averaged from 32 records on January 3, 2014
WEATHER CONDITIONS BREAKOUT
WIND DIRECTION BREAKOUT
WEATHER BY HOUR - JANUARY 3, 2014
[ °C ]   °F
Local TimeTemperatureDewpointHumidityBarometerVisibilityWind DirectionWind SpeedGust SpeedPrecipitationEventsConditions
12:30 AM32.0 °F30.2 °F93 %30.21 in3.7 miCalmSnowLight Snow
1:30 AM32.0 °F30.2 °F93 %30.21 in3.7 miCalmOvercast
2:30 AM32.0 °F30.2 °F93 %30.21 in4.3 miCalmSnowLight Snow
3:30 AM31.0 °F30.0 °F95 %30.35 in4.0 miCalmMist
3:30 AM32.0 °F30.2 °F93 %30.21 in4.3 miCalmOvercast
4:30 AM30.2 °F30.2 °F100 %30.21 in4.3 miCalmOvercast
5:30 AM30.2 °F30.2 °F100 %30.21 in3.7 miCalmSnowLight Snow
6:30 AM32.0 °F30.2 °F93 %30.24 in3.7 miCalmSnowLight Snow
6:30 AM31.0 °F29.0 °F91 %30.36 in4.0 miCalmSnowLight Snow
7:30 AM30.2 °F30.2 °F100 %30.24 in3.7 miCalmSnowLight Snow
8:30 AM30.2 °F30.2 °F100 %30.24 in1.9 miCalmSnowLight Snow
9:30 AM31.0 °F30.0 °F93 %30.41 in3.0 miCalmSnowLight Snow
9:30 AM30.2 °F30.2 °F100 %30.27 in3.1 miCalmSnowLight Snow
10:30 AM35.6 °F30.2 °F81 %30.27 in6.2 miWSW (240°)4.6 mphScattered Clouds
11:00 AM35.6 °F32.0 °F87 %30.27 in4.3 miCalmMostly Cloudy
11:30 AM35.6 °F28.4 °F75 %30.27 in4.3 miCalmMostly Cloudy
12:30 PM33.8 °F26.6 °F75 %30.24 in4.3 miCalmOvercast
12:30 PM34.0 °F27.0 °F67 %30.37 in4.0 miCalmHaze
1:30 PM33.8 °F30.2 °F87 %30.24 in5.0 miNW (320°)6.9 mphIce Pellets
2:30 PM33.8 °F30.2 °F87 %30.24 in5.0 miNW (320°)6.9 mphMostly Cloudy
3:30 PM33.0 °F30.0 °F86 %30.37 in2.0 miNNW (330°)4.5 mphOvercast
3:30 PM33.8 °F30.2 °F87 %30.24 in2.5 miNNW (330°)4.6 mphSnowLight Snow
4:30 PM32.0 °F30.2 °F93 %30.24 in2.5 miWSW (240°)6.9 mphSnowLight Snow
5:30 PM32.0 °F30.2 °F93 %30.24 in2.5 miWSW (240°)6.9 mphSnowLight Snow
6:30 PM32.0 °F28.4 °F87 %30.27 in5.0 miNW (320°)6.9 mphMostly Cloudy
6:30 PM32.0 °F29.0 °F85 %30.41 in5.0 miNW (320°)6.7 mphMist
7:30 PM30.2 °F28.4 °F93 %30.30 in5.0 miWNW (300°)6.9 mphSnowLight Snow
8:30 PM30.2 °F28.4 °F93 %30.27 in5.0 miCalmOvercast
9:30 PM31.0 °F28.0 °F82 %30.43 in6.0 miCalmPartly Cloudy
9:30 PM30.2 °F28.4 °F93 %30.27 in6.2 miCalmMostly Cloudy
10:30 PM30.2 °F26.6 °F86 %30.30 in6.2 miCalmMostly Cloudy
11:30 PM30.2 °F26.6 °F86 %30.30 in6.2 miCalmMostly Cloudy
Hourly data recorded from 40723, located miles away from Bojnurd, Iran







STORIES FROM OUR PARTNERS